Flag for U.S.A. Weather past 2 weeks in Cambridge, Massachusetts, U.S.A.

Now
42 °F

Mostly cloudy.


Feels Like: 37 °F
Forecast: 34 / 39 °F
Wind: 8 mph from West

Location: Logan International Airport

Current Time: Mar 4, 2015 at 6:25:23 PM

Latest Report: Mar 4, 2015 at 5:54 PM


Visibility: 10 mi

Pressure: 29.79 "Hg

Humidity: 60%

Dew point: 29 °F

Location of CambridgeLocation

Historic Weather in Cambridge — Graph

°F

Cambridge temperature yesterday

Maximum temperature yesterday: 32 °F (at 11:54 PM)
Minimum temperature yesterday: 20 °F (at 5:54 AM)
Average temperature yesterday: 26 °F

Past Weeks' High & Low Weather Summary

 TemperatureHumidityPressure
High42 °F (Mar 4, 10:54 AM)100% (Feb 22, 1:54 AM)30.74 "Hg (Feb 22, 1:54 AM)
Low2 °F (Feb 24, 4:54 AM)27% (Feb 23, 1:54 PM)29.53 "Hg (Feb 19, 1:54 PM)
Average23 °F59%30.12 "Hg
* Reported Feb 17 4:54 PM — Mar 4 4:54 PM, Cambridge, Weather by CustomWeather, © 2015

Note: Actual official high and low records may vary slightly from our data, if they occured in-between our weather recording intervals... More about our weather records

Advertising

Cambridge weather history for previous 24 hours

 ConditionsComfort  
Time TempWeatherWind HumidityBarometerVisibility
4:54 PM
Wed, Mar 4
41 °FMostly cloudy.13 mph62%29.79 "Hg10 mi
3:54 PM42 °FMostly cloudy.13 mph60%29.77 "Hg10 mi
2:54 PM42 °FMostly cloudy.18 mph60%29.77 "Hg10 mi
1:54 PM42 °FMostly cloudy.14 mph62%29.75 "Hg10 mi
12:54 PM42 °FMostly cloudy.16 mph62%29.75 "Hg10 mi
11:54 AM41 °FMore clouds than sun.14 mph67%29.78 "Hg10 mi
10:54 AM42 °FMore clouds than sun.14 mph68%29.76 "Hg10 mi
9:54 AM38 °FMore clouds than sun.10 mph83%29.75 "Hg10 mi
7:54 AM37 °FMostly cloudy.12 mph89%29.72 "Hg10 mi
6:54 AM37 °FMostly cloudy.13 mph89%29.70 "Hg10 mi
5:54 AM37 °FOvercast.12 mph89%29.66 "Hg10 mi
4:54 AM38 °FMostly cloudy.14 mph86%29.65 "Hg10 mi
3:54 AM38 °FMostly cloudy.14 mph90%29.64 "Hg10 mi
2:54 AM36 °FLow clouds.8 mph92%29.66 "Hg10 mi
1:54 AM36 °FLow clouds.8 mph92%29.70 "Hg10 mi
12:54 AM35 °FLight rain. Low clouds.12 mph92%29.73 "Hg8 mi
12:02 AM34 °FLight rain. Fog.12 mph87%29.80 "Hg2 mi
11:54 PM
Tue, Mar 3
32 °FLight freezing rain. Ice fog.8 mph96%29.80 "Hg2 mi
10:54 PM29 °FLight freezing rain. Ice fog.5 mph96%29.88 "Hg1 mi
9:59 PM27 °FLight snow. Low clouds.12 mph93%29.94 "Hg1 mi
9:02 PM27 °FLight snow. Low clouds.10 mph93%30.01 "Hg1 mi
8:54 PM26 °FLight snow. Ice fog.12 mph92%30.02 "Hg1 mi
7:54 PM25 °FLight snow. Overcast.9 mph88%30.09 "Hg1 mi
6:54 PM27 °FMostly cloudy.23 mph63%30.12 "Hg10 mi
Weather by CustomWeather, © 2015

See weather overviewHow to use our weather pages